Regional Weather Roundup
Issued by NWS

Home | Current Version | Previous Version | Text Only | Print | Product List | Glossary Off
Versions: 1 2 3 4 5 6 7 8 9 10 11 12 13 14 15 16 17 18 19 20 21 22 23 24 25 26 27 28 29 30 31 32 33 34 35 36 37 38 39 40 41 42 43 44 45 46 47 48 49 50

000
ASUS43 KMPX 211710
RWRMN
WEATHER ROUNDUP FOR MINNESOTA
NATIONAL WEATHER SERVICE TWIN CITIES/CHANHASSEN MN
1200 PM CDT SUN SEP 21 2014


NOTE: "FAIR" INDICATES FEW OR NO CLOUDS BELOW 12,000 FEET WITH NO
SIGNIFICANT WEATHER AND/OR OBSTRUCTIONS TO VISIBILITY. N/A MEANS
CURRENT SKY AND/OR WEATHER CONDITIONS ARE NOT AVAILABLE.

MNZ060>063-068>070-211800-
   Twin Cities Metro

CITY           SKY/WX    TMP DP  RH WIND       PRES   REMARKS
TWIN CITIES    PTSUNNY   60  47  61 N15       30.14R
ST PAUL        CLOUDY    59  48  67 NW15      30.14R
CRYSTAL        MOSUNNY   61  46  57 N13G25    30.13R
BLAINE         PTSUNNY   61  48  63 N14G20    30.14R
LAKEVILLE      MOSUNNY   61  48  63 N12       30.13R
EDEN PRAIRIE   PTSUNNY   61  49  64 NW14G22   30.13S
SOUTH ST PAUL  PTSUNNY   60  47  62 NW10G17   30.13R
LAKE ELMO      PTSUNNY   59  50  72 NW14G20   30.13R
$$
MNZ001>005-007-008-013>017-022>024-027-028-211800-
   Northwest Minnesota

CITY           SKY/WX    TMP DP  RH WIND       PRES   REMARKS
BEMIDJI        PTSUNNY   58  47  67 NW9G16    30.18R
HALLOCK        CLOUDY    57  54  88 NW7       30.22S
ROSEAU         CLOUDY    57  52  82 NW5       30.20R
WARROAD        MOSUNNY   59  52  77 N6        30.19S
THIEF RVR FALL CLOUDY    55  50  82 NW9       30.22R
CROOKSTON      CLOUDY    54  52  94 NW8       30.25R
FOSSTON        CLOUDY    54  50  87 N8        30.22R
DETROIT LAKES  CLOUDY    54  50  87 N14       30.22R
MOORHEAD       CLOUDY    55  55 100 N7        30.24R
PARK RAPIDS    MOSUNNY   59  47  64 N10G16    30.18R
MAHNOMEN       CLOUDY    54  50  85 N10       30.22R
$$
MNZ006-009>011-018-025>026-211800-
   North Central Minnesota

CITY           SKY/WX    TMP DP  RH WIND       PRES   REMARKS
BAUDETTE       MOSUNNY   58  48  69 N9        30.18R
FLAG ISLAND    SUNNY     54  48  82 NW5       30.17R
INTL FALLS     SUNNY     57  44  62 N7        30.16R
WASKISH        MOSUNNY   59  50  72 CALM      30.18S
BIG FORK       SUNNY     57  45  62 N6        30.17R
LONGVILLE      MOSUNNY   59  48  67 N5        30.17R
GRAND RAPIDS   PTSUNNY   55  45  67 NW16      30.16R
CRANE LAKE     SUNNY     52  43  71 NW5       30.16S
ORR            SUNNY     55  39  54 NW6       30.13R
COOK           SUNNY     55  41  58 N6        30.14R
WALKER         PTSUNNY   58  47  68 N6        30.17S
$$
MNZ012-019>021-037-211800-
   Northeast Minnesota

CITY           SKY/WX    TMP DP  RH WIND       PRES   REMARKS
DULUTH         MOSUNNY   58  40  51 N15       30.10R
ELY            SUNNY     52  37  58 NE7       30.11R
HIBBING        MOSUNNY   59  43  55 N10       30.13R
EVELETH        SUNNY     57  39  51 N9G17     30.13R
DULUTH HARBOR  MOSUNNY   59  52  77 E7        30.11R
TWO HARBORS    SUNNY     57  41  54 N5        30.09R
SILVER BAY     SUNNY     54  45  71 N6        30.08R
GRAND MARAIS     N/A     57  40  52 VRB7      30.07S
G MARAIS ARPRT SUNNY     50  34  53 NW9G18    30.07R
$$
MNZ029>031-032-039>041-046>048-054>057-064-211800-
   West Central Minnesota

CITY           SKY/WX    TMP DP  RH WIND       PRES   REMARKS
FERGUS FALLS   PTSUNNY   57  48  72 NW13G18   30.23R
WHEATON        MOSUNNY   59  50  72 NW10      30.25R
MORRIS         SUNNY     59  52  77 NW15      30.21S
ALEXANDRIA     CLOUDY    57  50  77 N13       30.22R
ELBOW LAKE     PTSUNNY   57  50  76 N12       30.21S
WADENA         CLOUDY    57  48  72 N8G17     30.19R
GLENWOOD       MOSUNNY   57  50  77 NW14      30.21R
APPLETON       PTSUNNY   63  50  63 N13G18    30.22R
BENSON         PTSUNNY   59  52  77 N13G21    30.22R
ORTONVILLE     PTSUNNY   61  48  63 N15       30.23R
MADISON        SUNNY     64  54  68 NW14      30.23R
WILLMAR        FAIR      59  48  67 N10       30.21R
$$
MNZ033>034-036-042>043-049>051-058-059-211800-
   Central Minnesota

CITY           SKY/WX    TMP DP  RH WIND       PRES   REMARKS
ST CLOUD       MOSUNNY   64  48  56 N9G17     30.16R
SAUK CENTRE    CLOUDY    57  50  77 NW13      30.19R
PAYNESVILLE    CLOUDY    55  47  74 NW9G17    30.19R
AITKIN         PTSUNNY   59  48  67 N9        30.15R
PINE RIVER     PTSUNNY   57  48  72 N10       30.20R
BRAINERD       CLOUDY    58  46  64 N14       30.17R
STAPLES        PTSUNNY   59  46  63 N12G17    30.18R
LONG PRAIRIE   CLOUDY    55  50  82 NW12      30.19R
LITTLE FALLS   PTSUNNY   57  46  67 NW8       30.17R
LITCHFIELD     PTSUNNY   63  54  72 N10G17    30.18R
BUFFALO        MOSUNNY   61  47  61 N9        30.17R
MAPLE LAKE     MOSUNNY   61  51  68 N10G18    30.17S
$$
MNZ037-044-045-052-053-211800-
   East Central Minnesota

CITY           SKY/WX    TMP DP  RH WIND       PRES   REMARKS
PRINCETON      PTSUNNY   61  50  67 NW9       30.15R
MORA           MOSUNNY   55  45  67 NW14G20   30.16R
CAMBRIDGE      PTSUNNY   61  48  63 N10G17    30.13R
RUSH CITY      MOSUNNY   59  47  66 NW8G18    30.14R
MOOSE LAKE     MOSUNNY   59  45  58 NW9G17    30.12R
HINCKLEY       PTSUNNY   59  48  67 NW10      30.13R
CLOQUET        MOSUNNY   57  45  62 NW14G20   30.12R
MCGREGOR       PTSUNNY   55  46  71 NW10      30.16R
$$
MNZ071>073-080-081-089-090-097-098-211800-
   Southwest Minnesota

CITY           SKY/WX    TMP DP  RH WIND       PRES   REMARKS
MONTEVIDEO     PTSUNNY   63  52  67 NE13      30.23R
GRANITE FALLS  MOSUNNY   60  50  71 N14       30.23R
CANBY          MOSUNNY   63  51  65 NW10G17   30.24R
MARSHALL       MOSUNNY   63  46  55 N16       30.20S
REDWOOD FALLS  PTSUNNY   62  51  67 NW13      30.20R
OLIVIA         CLOUDY    59  50  72 NW12      30.18S
PIPESTONE      MOSUNNY   63  46  55 N15G21    30.23R
WINDOM         MOSUNNY   61  46  59 NW16G22   30.20R
WORTHINGTON    MOSUNNY   63  46  55 NW17      30.23R
JACKSON        MOSUNNY   63  46  55 N12G20    30.20R
TRACY          MOSUNNY   63  50  61 N15G23    30.22R
SLAYTON        MOSUNNY   61  47  59 NW13      30.22S
$$
MNZ065>067-074>077-082>085-091>093-211800-
   South Central Minnesota

CITY           SKY/WX    TMP DP  RH WIND       PRES   REMARKS
MANKATO        CLOUDY    61  45  55 NW14      30.16R
NEW ULM        MOSUNNY   61  48  63 N13G25    30.17R
ST JAMES       PTSUNNY   63  48  59 NW13      30.19R
FAIRMONT       CLOUDY    63  45  51 NW17      30.18R
GLENCOE        PTSUNNY   62  47  59 NW13      30.16R
FARIBAULT      MOSUNNY   64  45  48 NW12      30.14R
OWATONNA       MOSUNNY   59  48  67 N15G22    30.14R
WASECA         CLOUDY    59  45  58 NW12G17   30.16R
ALBERT LEA     PTSUNNY   61  48  63 N13       30.14R
$$
MNZ078>079-086>088-094>096-211800-
   Southeast Minnesota

CITY           SKY/WX    TMP DP  RH WIND       PRES   REMARKS
ROCHESTER      PTSUNNY   59  48  67 N17G24    30.11R
RED WING       PTSUNNY   61  46  59 N13G18    30.11R
STANTON        PTSUNNY   60  49  66 N9        30.12R
DODGE CENTER   CLOUDY    57  52  82 NW14      30.12R
WINONA         PTSUNNY   61  48  63 NW13G21   30.07R
AUSTIN         PTSUNNY   55  48  76 NW13      30.12R
PRESTON        PTSUNNY   59  52  79 N20G26    30.09R
$$
ABBREVIATIONS USED IN REMARKS
   TC - TEMPERATURES IN CELSIUS
  WCI - WIND CHILL INDEX
   HX - HEAT INDEX
  VSB - VISIBILITY
$$


USA.gov is the U.S. government's official web portal to all federal, state and local government web resources and services.